Charleston, SC

2:39 PM EDT on April 23, 2018 (GMT -0400)
Charleston Air Force Base-International

Weather History for KCHS - April, 2013

Change the Weather History Date:

Wednesday, April 3, 2013

  Actual Average Record
Temperature  
Mean Temperature 60 °F 62 °F  
Max Temperature 71 °F 74 °F 93 °F (1946)
Min Temperature 48 °F 51 °F 33 °F (1962)
Degree Days  
Heating Degree Days 5 5  
Month to date heating degree days 12 15  
Since 1 July heating degree days 1777 1890  
Cooling Degree Days 0 2  
Month to date cooling degree days 3 5  
Year to date cooling degree days 34 39  
Growing Degree Days 10 (Base 50)    
Moisture  
Dew Point 47 °F    
Average Humidity 70    
Maximum Humidity 96    
Minimum Humidity 44    
Precipitation  
Precipitation T in 0.10 in 1.10 in (1998)
Month to date precipitation T 0.32  
Year to date precipitation 14.89 10.70  
Snow  
Snow 0.00 in 0.00 in - ()
Month to date snowfall 0.0  
Since 1 July snowfall T 0.5  
Snow Depth 0.00 in    
Sea Level Pressure  
Sea Level Pressure 30.16 in    
Wind  
Wind Speed 8 mph (NE)    
Max Wind Speed 16 mph    
Max Gust Speed 21 mph    
Visibility 8 miles    
Events Fog    
T = Trace of Precipitation, MM = Missing Value Source: NWS Daily Summary

Daily Weather History Graph

Daily Weather History Graph

Search for Another Location

Airport or City:

Astronomy

Apr. 03, 2013 Rise Set
Actual Time 7:05 AM EDT 7:41 PM EDT
Civil Twilight 6:40 AM EDT 8:06 PM EDT
Nautical Twilight 6:11 AM EDT 8:36 PM EDT
Astronomical Twilight 5:41 AM EDT 9:06 PM EDT
Moon 2:24 AM EDT (4/3) 1:11 PM EDT (4/3)
Length of Visible Light 13h 26m
Length of Day
12h 36m
Last Quarter, 45% of the Moon is Illuminated
Apr 3
Last Quarter
Apr 10
New
Apr 18
First Quarter
Apr 25
Full
May 2
Last Quarter

Hourly Weather History & Observations

Time (EDT) Temp. Dew Point Humidity Pressure Visibility Wind Dir Wind Speed Gust Speed Precip Events Conditions
12:56 AM 54.0 °F 50.0 °F 86% 30.12 in 10.0 mi South 3.5 mph - N/A   Partly Cloudy
1:56 AM 55.0 °F 51.1 °F 86% 30.11 in 10.0 mi Calm Calm - N/A   Partly Cloudy
2:56 AM 52.0 °F 50.0 °F 93% 30.09 in 10.0 mi Calm Calm - N/A   Clear
3:56 AM 51.1 °F 48.0 °F 89% 30.09 in 4.0 mi Calm Calm - N/A   Clear
4:27 AM 48.2 °F 46.4 °F 93% 30.09 in 2.5 mi NNW 4.6 mph - N/A   Clear
4:35 AM 48.2 °F 46.4 °F 93% 30.08 in 4.0 mi North 4.6 mph - N/A   Clear
4:56 AM 48.9 °F 46.9 °F 93% 30.08 in 7.0 mi North 3.5 mph - N/A   Clear
5:56 AM 50.0 °F 48.0 °F 93% 30.09 in 7.0 mi Calm Calm - N/A Fog Shallow Fog
6:56 AM 48.9 °F 46.9 °F 93% 30.12 in 8.0 mi North 3.5 mph - N/A Fog Shallow Fog
7:48 AM 51.8 °F 48.2 °F 88% 30.15 in 5.0 mi NNW 4.6 mph - N/A   Scattered Clouds
7:56 AM 53.1 °F 50.0 °F 89% 30.16 in 5.0 mi North 9.2 mph - N/A   Mostly Cloudy
8:07 AM 53.6 °F 50.0 °F 88% 30.17 in 2.5 mi North 10.4 mph - N/A   Mostly Cloudy
8:56 AM 55.0 °F 51.1 °F 86% 30.17 in 7.0 mi NE 8.1 mph - N/A   Mostly Cloudy
9:09 AM 55.4 °F 51.8 °F 88% 30.17 in 8.0 mi NE 8.1 mph - N/A   Mostly Cloudy
9:29 AM 57.2 °F 51.8 °F 82% 30.18 in 10.0 mi NNE 6.9 mph - N/A   Mostly Cloudy
9:56 AM 60.1 °F 51.1 °F 72% 30.18 in 10.0 mi NNE 8.1 mph - N/A   Mostly Cloudy
10:56 AM 63.0 °F 50.0 °F 63% 30.18 in 10.0 mi NNE 10.4 mph - N/A   Mostly Cloudy
11:56 AM 66.9 °F 50.0 °F 54% 30.19 in 10.0 mi NE 10.4 mph - N/A   Mostly Cloudy
12:56 PM 69.1 °F 50.0 °F 51% 30.18 in 10.0 mi NNE 10.4 mph 16.1 mph N/A   Mostly Cloudy
1:56 PM 70.0 °F 48.9 °F 47% 30.16 in 10.0 mi Variable 3.5 mph - N/A   Mostly Cloudy
2:56 PM 68.0 °F 46.9 °F 47% 30.16 in 10.0 mi ESE 15.0 mph - N/A   Mostly Cloudy
3:56 PM 64.0 °F 42.1 °F 45% 30.16 in 10.0 mi ESE 15.0 mph - N/A   Overcast
4:56 PM 62.1 °F 41.0 °F 46% 30.17 in 10.0 mi East 12.7 mph - N/A   Overcast
5:56 PM 61.0 °F 39.9 °F 46% 30.17 in 10.0 mi East 11.5 mph - N/A   Overcast
6:56 PM 59.0 °F 41.0 °F 51% 30.19 in 10.0 mi East 8.1 mph - N/A   Overcast
7:56 PM 57.9 °F 41.0 °F 53% 30.20 in 10.0 mi East 10.4 mph - N/A   Overcast
8:56 PM 57.0 °F 42.1 °F 57% 30.22 in 10.0 mi East 9.2 mph - N/A   Overcast
9:56 PM 55.9 °F 42.1 °F 60% 30.22 in 10.0 mi East 10.4 mph - N/A   Overcast
10:56 PM 55.0 °F 43.0 °F 64% 30.22 in 10.0 mi ENE 8.1 mph - N/A   Overcast
11:56 PM 55.0 °F 42.1 °F 62% 30.26 in 10.0 mi NE 5.8 mph - N/A   Overcast